TimeCDT,TemperatureF,Dew PointF,Humidity,Sea Level PressureIn,VisibilityMPH,Wind Direction,Wind SpeedMPH,Gust SpeedMPH,PrecipitationIn,Events,Conditions,WindDirDegrees,DateUTC
12:51 AM,68.0,64.0,87,30.10,10.0,SE,4.6,-,N/A,,Clear,140,2013-05-09 05:51:00
1:51 AM,66.9,64.9,93,30.07,10.0,SE,4.6,-,N/A,,Clear,140,2013-05-09 06:51:00
2:51 AM,70.0,66.0,87,30.06,10.0,South,10.4,-,N/A,,Clear,170,2013-05-09 07:51:00
3:51 AM,68.0,64.9,90,30.06,10.0,SE,5.8,-,N/A,,Clear,140,2013-05-09 08:51:00
4:51 AM,66.9,64.9,93,30.06,10.0,SE,5.8,-,N/A,,Clear,130,2013-05-09 09:51:00
5:51 AM,64.9,64.0,97,30.07,10.0,SE,3.5,-,N/A,,Clear,130,2013-05-09 10:51:00
6:51 AM,66.9,64.9,93,30.10,10.0,SE,5.8,-,N/A,,Clear,130,2013-05-09 11:51:00
7:51 AM,71.1,68.0,90,30.11,10.0,SSE,6.9,-,N/A,,Clear,150,2013-05-09 12:51:00
8:51 AM,73.0,68.0,84,30.12,10.0,ESE,8.1,-,N/A,,Clear,120,2013-05-09 13:51:00
9:51 AM,75.0,66.9,76,30.13,10.0,SSE,8.1,-,N/A,,Partly Cloudy,150,2013-05-09 14:51:00
10:15 AM,75.2,66.2,73,30.14,10.0,SE,6.9,-,N/A,,Mostly Cloudy,140,2013-05-09 15:15:00
10:51 AM,77.0,66.9,71,30.15,10.0,SE,9.2,-,N/A,,Mostly Cloudy,140,2013-05-09 15:51:00
11:51 AM,75.9,66.9,74,30.14,10.0,SE,8.1,-,N/A,,Overcast,130,2013-05-09 16:51:00
12:51 PM,77.0,66.0,69,30.13,10.0,SE,12.7,-,N/A,,Mostly Cloudy,130,2013-05-09 17:51:00
1:51 PM,75.9,66.9,74,30.12,10.0,ESE,11.5,17.3,N/A,,Overcast,120,2013-05-09 18:51:00
2:51 PM,77.0,66.0,69,30.11,10.0,SE,6.9,18.4,N/A,,Mostly Cloudy,130,2013-05-09 19:51:00
3:18 PM,78.8,66.2,65,30.10,10.0,SE,8.1,-,N/A,,Scattered Clouds,130,2013-05-09 20:18:00
3:51 PM,77.0,66.9,71,30.09,10.0,ESE,9.2,-,N/A,,Mostly Cloudy,120,2013-05-09 20:51:00
4:18 PM,75.2,66.2,73,30.08,10.0,SE,8.1,-,N/A,,Mostly Cloudy,130,2013-05-09 21:18:00
4:51 PM,77.0,68.0,74,30.09,10.0,SE,9.2,-,N/A,,Mostly Cloudy,130,2013-05-09 21:51:00
5:23 PM,75.2,66.2,73,30.08,10.0,ESE,9.2,-,N/A,,Scattered Clouds,120,2013-05-09 22:23:00
5:51 PM,75.0,66.9,76,30.08,10.0,ESE,10.4,-,N/A,,Partly Cloudy,120,2013-05-09 22:51:00
6:51 PM,73.0,66.0,79,30.07,10.0,ESE,6.9,-,N/A,,Partly Cloudy,120,2013-05-09 23:51:00
7:18 PM,71.6,66.2,83,30.07,10.0,ESE,5.8,-,N/A,,Partly Cloudy,110,2013-05-10 00:18:00
7:51 PM,71.1,66.9,87,30.08,10.0,ESE,5.8,-,N/A,,Partly Cloudy,110,2013-05-10 00:51:00
8:51 PM,70.0,68.0,93,30.07,10.0,ESE,9.2,-,N/A,,Clear,110,2013-05-10 01:51:00
9:51 PM,70.0,68.0,93,30.08,10.0,ESE,6.9,-,N/A,,Clear,120,2013-05-10 02:51:00
10:51 PM,70.0,68.0,93,30.08,10.0,ESE,6.9,-,N/A,,Clear,110,2013-05-10 03:51:00
11:51 PM,70.0,68.0,93,30.06,10.0,ESE,8.1,-,N/A,,Clear,120,2013-05-10 04:51:00